OBJECT X, 66687

Orbit data source: Space-Track

You're viewing an Uncataloged Satellite

Recently launched and/or uncataloged satellites may have evolving metadata. Metadata may include but not limited to: Owner, Maufacturer, Bus, Motor, and Mission.

OBJECT X, 66687 is a satellite in SSO that was launched on Fri, 28 Nov 2025 UTC via an FALCON 9 launch vehicle from the Air Force Western Test Range (AFWTR). Unknown objects in Earth's orbit typically refer to objects detected orbiting the Earth but have not yet been identified or cataloged. These objects could be anything from previously untracked satellites, spent rocket stages, debris from satellite collisions, or even natural meteoroids temporarily captured by Earth's gravity.

Loading next visibility...
Identifier
66687, 2025-276X
Orbit
SSO
Country
Flag of TBDTBD
Related business
None
Manufacturer
Unknown
Mission
Operational Civil Communications
Bus & Motor
Unknown
Mass
Unknown
Launch date (UTC)
2025-11-28 (2 months ago)
Launch vehicle
FALCON 9
Launch site
Air Force Western Test Range (AFWTR)
Object type
Unknown
Shape & HBR
Box + 2 Pan, 0.1 m
Radar Cross Section
0.035 m²

Expand to show TLE details & history
Last TLE update: 12 hours ago

TLE from 12 hours ago
0 OBJECT X
1 66687U 25276X   26034.63947803  .00013203  00000-0  65175-3 0  9996
2 66687  97.4342 110.4125 0007734 254.0391 105.9991 15.17988792 10140
Epoch: 2026-02-03T15:20Z
TLE epoch observation values (Epoch: 2026-02-03T15:20:50.901Z)
Latitude
-0.00005°
Longitude
106.3829°
Altitude
516.479 km
Speed
7.605 km/s
True Right ascension
07h 21m 39s
True Declination
0° 00' 00"
Sunlit
Object was in full shadow at epoch
Visualization orbit readout
Latitude
Unknown
Longitude
Unknown
Altitude
Unknown
Speed
Unknown
Apparent Right ascension
Unknown
Apparent Declination
Unknown
Sunlit
N/A
Visualization observer readout
Local Sidereal Time
05:37:28
Azimuth
Unknown
Elevation
Unknown
Doppler factor
Unknown
Orbital elements
Apogee altitude
514.216 km
Perigee altitude
503.563 km
Semi-major axis
6,887.026 km
Eccentricity
0.00077
Inclination
97.4342°
RAAN
110.4125°
Arg. of periapsis
254.0391°
True anomaly
106.08427°
Mean anomaly
105.9991°
Eccentric anomaly
106.04169°
Mean motion
3.79748 °/min
Orbital period
94.8 mins
BSTAR
0.00065175
Loading maneuver chart data...
Computing Atmospheric mass density...
Loading historical data...
Loading historical data...
Loading historical data...
Loading historical data...
Loading historical data...
Loading historical data...
Loading historical data...

Documentation

Showing up to 5 results
|